Frankfort, MI

6:51 AM EDT on May 28, 2017 (GMT -0400)
Frankfort

Weather History for KFKS - October, 2011

Change the Weather History Date:

Saturday, October 1, 2011

  Actual Average (KMBL) Record (KMBL)
Temperature  
Mean Temperature 46 °F -  
Max Temperature 50 °F 66 °F 82 °F (1971)
Min Temperature 42 °F 45 °F 30 °F (1997)
Degree Days  
Heating Degree Days 19    
Moisture  
Dew Point 33 °F    
Average Humidity 60    
Maximum Humidity 66    
Minimum Humidity 54    
Precipitation  
Precipitation 0.00 in - - ()
Sea Level Pressure  
Sea Level Pressure 30.25 in    
Wind  
Wind Speed 8 mph (NNE)    
Max Wind Speed 13 mph    
Max Gust Speed 21 mph    
Visibility 10 miles    
Events      
Averages and records for this station are not official NWS values.
T = Trace of Precipitation, MM = Missing Value Source: NWS Daily Summary

Daily Weather History Graph

Daily Weather History Graph

Search for Another Location

Airport or City:

Trip Planner

Search our weather history database for the weather conditions in past years. The results will help you decide how hot, cold, wet, or windy it might be!

Date:

Astronomy

Oct. 01, 2011 Rise Set
Actual Time 7:42 AM EDT 7:25 PM EDT
Civil Twilight 7:13 AM EDT 7:54 PM EDT
Nautical Twilight 6:39 AM EDT 8:28 PM EDT
Astronomical Twilight 6:05 AM EDT 9:02 PM EDT
Moon 1:02 PM EDT (10/1) 10:08 PM EDT (10/1)
Length of Visible Light 12h 41m
Length of Day
11h 43m
Waxing Crescent, 24% of the Moon is Illuminated
Oct 1
Waxing Crescent
Oct 3
First Quarter
Oct 11
Full
Oct 19
Last Quarter
Oct 26
New

Hourly Weather History & Observations

Time (EDT) Temp. Windchill Dew Point Humidity Pressure Visibility Wind Dir Wind Speed Gust Speed Precip Events Conditions
12:13 AM 46.4 °F 41.9 °F 35.6 °F 66% 30.15 in 10.0 mi North 9.2 mph - N/A   Overcast
12:33 AM 46.4 °F 40.7 °F 32.0 °F 57% 30.15 in 10.0 mi North 12.7 mph 18.4 mph N/A   Overcast
12:54 AM 46.4 °F 42.4 °F 32.0 °F 57% 30.15 in 10.0 mi NE 8.1 mph 18.4 mph N/A   Mostly Cloudy
1:14 AM 46.4 °F 43.5 °F 32.0 °F 57% 30.15 in 10.0 mi North 5.8 mph 16.1 mph N/A   Overcast
1:34 AM 46.4 °F 42.4 °F 32.0 °F 57% 30.16 in 10.0 mi NNE 8.1 mph 18.4 mph N/A   Overcast
1:49 AM 46.4 °F 41.1 °F 32.0 °F 57% 30.16 in 10.0 mi North 11.5 mph 19.6 mph N/A   Overcast
2:11 AM 46.4 °F 41.9 °F 32.0 °F 57% 30.16 in 10.0 mi North 9.2 mph 19.6 mph N/A   Overcast
2:31 AM 44.6 °F 39.2 °F 32.0 °F 61% 30.17 in 10.0 mi North 10.4 mph 20.7 mph N/A   Overcast
2:51 AM 44.6 °F 39.7 °F 32.0 °F 61% 30.17 in 10.0 mi North 9.2 mph 19.6 mph N/A   Overcast
3:12 AM 44.6 °F 40.2 °F 32.0 °F 61% 30.18 in 10.0 mi North 8.1 mph 18.4 mph N/A   Overcast
3:32 AM 44.6 °F 40.2 °F 32.0 °F 61% 30.18 in 10.0 mi North 8.1 mph 17.3 mph N/A   Overcast
3:52 AM 44.6 °F 39.7 °F 32.0 °F 61% 30.18 in 10.0 mi NNE 9.2 mph 18.4 mph N/A   Overcast
4:32 AM 44.6 °F 39.7 °F 32.0 °F 61% 30.19 in 10.0 mi North 9.2 mph - N/A   Overcast
4:52 AM 44.6 °F 40.2 °F 32.0 °F 61% 30.19 in 10.0 mi North 8.1 mph - N/A   Overcast
5:12 AM 44.6 °F 40.2 °F 32.0 °F 61% 30.20 in 10.0 mi North 8.1 mph - N/A   Overcast
5:32 AM 44.6 °F 40.2 °F 32.0 °F 61% 30.20 in 10.0 mi North 8.1 mph - N/A   Overcast
5:53 AM 44.6 °F 39.2 °F 32.0 °F 61% 30.21 in 10.0 mi NNE 10.4 mph - N/A   Overcast
6:13 AM 44.6 °F 39.7 °F 32.0 °F 61% 30.22 in 10.0 mi North 9.2 mph 17.3 mph N/A   Overcast
6:33 AM 44.6 °F 42.2 °F 32.0 °F 61% 30.22 in 10.0 mi North 4.6 mph 19.6 mph N/A   Overcast
6:53 AM 42.8 °F 38.6 °F 32.0 °F 66% 30.23 in 10.0 mi North 6.9 mph - N/A   Overcast
7:13 AM 42.8 °F 38.0 °F 32.0 °F 66% 30.25 in 10.0 mi ENE 8.1 mph - N/A   Overcast
7:33 AM 42.8 °F 38.6 °F 32.0 °F 66% 30.26 in 10.0 mi ENE 6.9 mph - N/A   Overcast
7:53 AM 42.8 °F 38.0 °F 32.0 °F 66% 30.26 in 10.0 mi ENE 8.1 mph - N/A   Overcast
8:13 AM 42.8 °F 38.0 °F 32.0 °F 66% 30.27 in 10.0 mi NE 8.1 mph 17.3 mph N/A   Overcast
8:33 AM 42.8 °F 37.0 °F 32.0 °F 66% 30.28 in 10.0 mi NE 10.4 mph 16.1 mph N/A   Overcast
8:54 AM 42.8 °F 38.0 °F 32.0 °F 66% 30.29 in 10.0 mi NE 8.1 mph - N/A   Overcast
9:14 AM 42.8 °F 41.1 °F 32.0 °F 66% 30.29 in 10.0 mi ENE 3.5 mph - N/A   Overcast
9:34 AM 42.8 °F 38.0 °F 32.0 °F 66% 30.30 in 10.0 mi NE 8.1 mph - N/A   Overcast
9:54 AM 42.8 °F 39.3 °F 32.0 °F 66% 30.30 in 10.0 mi ENE 5.8 mph - N/A   Mostly Cloudy
10:14 AM 44.6 °F 42.2 °F 32.0 °F 61% 30.31 in 10.0 mi ENE 4.6 mph - N/A   Mostly Cloudy
10:34 AM 44.6 °F 40.2 °F 32.0 °F 61% 30.32 in 10.0 mi ENE 8.1 mph - N/A   Mostly Cloudy
10:54 AM 46.4 °F 42.9 °F 32.0 °F 57% 30.32 in 10.0 mi NNE 6.9 mph - N/A   Mostly Cloudy
11:14 AM 46.4 °F 42.9 °F 32.0 °F 57% 30.32 in 10.0 mi NNE 6.9 mph - N/A   Scattered Clouds
11:35 AM 46.4 °F 42.9 °F 32.0 °F 57% 30.32 in 10.0 mi North 6.9 mph - N/A   Clear
11:55 AM 46.4 °F 41.5 °F 32.0 °F 57% 30.32 in 10.0 mi NNE 10.4 mph 17.3 mph N/A   Clear
12:15 PM 46.4 °F 41.9 °F 33.8 °F 62% 30.32 in 10.0 mi North 9.2 mph - N/A   Clear
12:35 PM 46.4 °F 41.1 °F 33.8 °F 62% 30.32 in 10.0 mi North 11.5 mph 17.3 mph N/A   Clear
12:55 PM 48.2 °F - 33.8 °F 58% 30.31 in 10.0 mi NNE 4.6 mph 17.3 mph N/A   Clear
1:15 PM 48.2 °F - 33.8 °F 58% 30.32 in 10.0 mi North 5.8 mph 16.1 mph N/A   Clear
1:35 PM 46.4 °F 42.4 °F 33.8 °F 62% 30.32 in 10.0 mi North 8.1 mph 20.7 mph N/A   Clear
1:55 PM 48.2 °F - 33.8 °F 58% 30.31 in 10.0 mi North 6.9 mph 16.1 mph N/A   Clear
2:16 PM 48.2 °F - 33.8 °F 58% 30.30 in 10.0 mi North 9.2 mph 17.3 mph N/A   Clear
2:31 PM 50.0 °F - 33.8 °F 54% 30.30 in 10.0 mi North 11.5 mph 16.1 mph N/A   Clear
2:51 PM 50.0 °F - 35.6 °F 58% 30.30 in 10.0 mi North 10.4 mph 19.6 mph N/A   Scattered Clouds
3:11 PM 50.0 °F - 35.6 °F 58% 30.29 in 10.0 mi NNW 11.5 mph - N/A   Clear
3:31 PM 50.0 °F - 35.6 °F 58% 30.29 in 10.0 mi NNW 9.2 mph 18.4 mph N/A   Clear
3:51 PM 50.0 °F - 35.6 °F 58% 30.29 in 10.0 mi North 6.9 mph 18.4 mph N/A   Clear
4:12 PM 50.0 °F - 35.6 °F 58% 30.28 in 10.0 mi North 11.5 mph 17.3 mph N/A   Clear
4:32 PM 50.0 °F - 35.6 °F 58% 30.28 in 10.0 mi North 5.8 mph - N/A   Clear
4:52 PM 50.0 °F - 35.6 °F 58% 30.28 in 10.0 mi NNW 8.1 mph - N/A   Clear
5:12 PM 50.0 °F - 35.6 °F 58% 30.28 in 10.0 mi NNE 9.2 mph 17.3 mph N/A   Clear
5:32 PM 48.2 °F - 33.8 °F 58% 30.28 in 10.0 mi North 8.1 mph 16.1 mph N/A   Clear
5:52 PM 48.2 °F - 33.8 °F 58% 30.28 in 10.0 mi North 6.9 mph - N/A   Clear
6:12 PM 48.2 °F - 33.8 °F 58% 30.28 in 10.0 mi North 5.8 mph - N/A   Clear
6:33 PM 46.4 °F 44.3 °F 32.0 °F 57% 30.28 in 10.0 mi NNE 4.6 mph - N/A   Clear
7:13 PM 46.4 °F 44.3 °F 32.0 °F 57% 30.27 in 10.0 mi NE 4.6 mph - N/A   Clear
7:53 PM 44.6 °F - 33.8 °F 66% 30.25 in 10.0 mi Calm Calm - N/A   Clear
8:13 PM 41.0 °F - 33.8 °F 76% 30.26 in 10.0 mi Calm Calm - N/A   Clear
8:33 PM 39.2 °F - 33.8 °F 81% 30.26 in 10.0 mi Calm Calm - N/A   Clear
8:54 PM 37.4 °F - 33.8 °F 87% 30.26 in 10.0 mi Calm Calm - N/A   Clear
9:14 PM 37.4 °F - 33.8 °F 87% 30.25 in 10.0 mi Calm Calm - N/A   Clear
9:34 PM 35.6 °F - 33.8 °F 93% 30.25 in 10.0 mi Calm Calm - N/A   Clear
9:54 PM 35.6 °F - 32.0 °F 87% 30.26 in 10.0 mi Calm Calm - N/A   Clear
10:14 PM 35.6 °F - 32.0 °F 87% 30.26 in 10.0 mi Calm Calm - N/A   Clear
10:34 PM 33.8 °F - 32.0 °F 93% 30.25 in 10.0 mi Calm Calm - N/A   Clear
10:54 PM 33.8 °F - 32.0 °F 93% 30.26 in 10.0 mi Calm Calm - N/A   Clear
11:14 PM 33.8 °F - 32.0 °F 93% 30.26 in 10.0 mi Calm Calm - N/A   Clear
11:35 PM 33.8 °F - 32.0 °F 93% 30.26 in 10.0 mi Calm Calm - N/A   Clear
11:55 PM 32.0 °F - 32.0 °F 100% 30.26 in 10.0 mi Calm Calm - N/A   Clear